Terug naar catalogus

GALAXY 27

TELSTAR 7

ActiefCommunicatieGEO
NORAD 25922·PAYLOAD· XX

Gelanceerd Sep 25, 1999 vanaf Guiana Space Centre

Loading…

TLE

VersSource: Space-Track

Epoch: Sep 14, 2026, 09:59 UTC

1 25922U 99052A   26257.41643779 -.00000080  00000-0  00000-0 0  9997
2 25922  10.4495  50.4756 0013765 333.8858  37.6553  0.99017309 52141

Volg GALAXY 27 in realtime met AllMySat

Download on the App Store